Haines, AK

7:38 AM AKDT on September 23, 2017 (GMT -0800)
Haines

Weather History for PAHN - April, 2013

Change the Weather History Date:

Wednesday, April 10, 2013

  Actual Average Record
Temperature  
Mean Temperature 34 °F -  
Max Temperature 37 °F 44 °F 60 °F (1997)
Min Temperature 32 °F 31 °F 12 °F (1986)
Degree Days  
Heating Degree Days 31    
Moisture  
Dew Point 27 °F    
Average Humidity 78    
Maximum Humidity 93    
Minimum Humidity 62    
Precipitation  
Precipitation 0.00 in - - ()
Sea Level Pressure  
Sea Level Pressure 29.87 in    
Wind  
Wind Speed 13 mph (ESE)    
Max Wind Speed 18 mph    
Max Gust Speed 31 mph    
Visibility 6 miles    
Events Snow    
Averages and records for this station are not official NWS values.
T = Trace of Precipitation, MM = Missing Value Source: NWS Daily Summary

Daily Weather History Graph

Daily Weather History Graph

Search for Another Location

Airport or City:

Trip Planner

Search our weather history database for the weather conditions in past years. The results will help you decide how hot, cold, wet, or windy it might be!

Date:

Astronomy

Apr. 10, 2013 Rise Set
Actual Time 6:00 AM AKDT 8:07 PM AKDT
Civil Twilight 5:17 AM AKDT 8:51 PM AKDT
Nautical Twilight 4:21 AM AKDT 9:47 PM AKDT
Astronomical Twilight 3:10 AM AKDT 10:59 PM AKDT
Moon 5:52 AM AKDT (4/10) 9:08 PM AKDT (4/10)
Length of Visible Light 15h 33m
Length of Day
14h 06m
New Moon, 0% of the Moon is Illuminated
Apr 10
New Moon
Apr 18
First Quarter
Apr 25
Full
May 2
Last Quarter
May 9
New

Hourly Weather History & Observations

Time (AKDT) Temp. Windchill Dew Point Humidity Pressure Visibility Wind Dir Wind Speed Gust Speed Precip Events Conditions
12:54 AM 34.0 °F 25.5 °F 26.1 °F 73% 29.68 in 10.0 mi ESE 11.5 mph 23.0 mph 0.00 in   Overcast
1:54 AM 33.1 °F 21.9 °F 26.1 °F 75% 29.70 in 10.0 mi SE 18.4 mph 26.5 mph N/A   Mostly Cloudy
2:54 AM 34.0 °F 26.6 °F 27.0 °F 75% 29.73 in 10.0 mi SE 9.2 mph 23.0 mph N/A   Scattered Clouds
3:54 AM 33.1 °F 23.0 °F 28.0 °F 82% 29.74 in 10.0 mi ESE 15.0 mph 24.2 mph N/A   Overcast
4:54 AM 33.1 °F 23.0 °F 27.0 °F 78% 29.74 in 10.0 mi SE 15.0 mph 24.2 mph N/A   Overcast
5:54 AM 32.0 °F 22.1 °F 28.0 °F 85% 29.75 in 10.0 mi ESE 13.8 mph 23.0 mph N/A   Scattered Clouds
6:54 AM 33.1 °F 25.5 °F 26.1 °F 75% 29.76 in 10.0 mi ESE 9.2 mph 17.3 mph N/A   Scattered Clouds
7:54 AM 35.1 °F 29.3 °F 25.0 °F 67% 29.77 in 10.0 mi Variable 6.9 mph 24.2 mph N/A   Mostly Cloudy
8:54 AM 34.0 °F 24.6 °F 26.1 °F 73% 29.80 in 10.0 mi ESE 13.8 mph 31.1 mph N/A   Mostly Cloudy
9:54 AM 35.1 °F 26.4 °F 25.0 °F 67% 29.82 in 10.0 mi ESE 12.7 mph 27.6 mph N/A   Overcast
10:54 AM 35.1 °F 24.8 °F 27.0 °F 72% 29.83 in 7.0 mi ESE 17.3 mph 29.9 mph 0.00 in Snow Light Snow
11:54 AM 36.0 °F 26.3 °F 27.0 °F 70% 29.84 in 10.0 mi ESE 16.1 mph 26.5 mph 0.00 in   Overcast
12:54 PM 36.0 °F 28.0 °F 24.1 °F 62% 29.86 in 10.0 mi ESE 11.5 mph 24.2 mph 0.00 in   Overcast
1:44 PM 33.8 °F 23.9 °F 28.4 °F 81% 29.88 in 1.8 mi ESE 15.0 mph 25.3 mph 0.00 in Snow Light Snow
1:52 PM 33.8 °F 25.3 °F 28.4 °F 81% 29.88 in 1.0 mi ESE 11.5 mph 23.0 mph 0.00 in Snow Light Snow
1:54 PM 33.1 °F 23.9 °F 28.9 °F 85% 29.89 in 1.0 mi ESE 12.7 mph 20.7 mph 0.00 in Snow Light Snow
2:15 PM 33.8 °F 24.8 °F 28.4 °F 81% 29.88 in 3.0 mi ESE 12.7 mph 24.2 mph 0.00 in Snow Light Snow
2:24 PM 33.8 °F 25.3 °F 28.4 °F 81% 29.87 in 7.0 mi ESE 11.5 mph 21.9 mph 0.00 in Snow Light Snow
2:54 PM 34.0 °F 27.2 °F 28.9 °F 82% 29.89 in 3.0 mi ESE 8.1 mph 19.6 mph 0.00 in Snow Light Snow
3:09 PM 33.8 °F 27.7 °F 28.4 °F 81% 29.88 in 2.0 mi East 6.9 mph - 0.00 in Snow Light Snow
3:23 PM 33.8 °F 25.8 °F 28.4 °F 81% 29.88 in 5.0 mi ESE 10.4 mph 18.4 mph 0.00 in Snow Light Snow
3:54 PM 35.1 °F 25.9 °F 27.0 °F 72% 29.89 in 9.0 mi ESE 13.8 mph 20.7 mph 0.00 in   Overcast
4:54 PM 34.0 °F 24.2 °F 28.9 °F 82% 29.91 in 3.0 mi SE 15.0 mph 23.0 mph 0.00 in Snow Light Snow
5:03 PM 33.8 °F 24.8 °F 28.4 °F 81% 29.90 in 2.5 mi ESE 12.7 mph 24.2 mph 0.00 in Snow Light Snow
5:11 PM 33.8 °F 24.8 °F 28.4 °F 81% 29.90 in 2.0 mi ESE 12.7 mph 23.0 mph 0.00 in Snow Light Snow
5:25 PM 33.8 °F 24.3 °F 28.4 °F 81% 29.90 in 1.2 mi ESE 13.8 mph 21.9 mph 0.00 in Snow Light Snow
5:39 PM 33.8 °F 25.3 °F 28.4 °F 81% 29.90 in 2.5 mi ESE 11.5 mph 18.4 mph 0.00 in Snow Light Snow
5:47 PM 33.8 °F 25.3 °F 28.4 °F 81% 29.90 in 5.0 mi ESE 11.5 mph 18.4 mph 0.00 in Snow Light Snow
5:54 PM 34.0 °F 24.2 °F 28.0 °F 79% 29.91 in 4.0 mi ESE 15.0 mph 21.9 mph 0.00 in Snow Light Snow
6:10 PM 33.8 °F 26.4 °F 28.4 °F 81% 29.91 in 5.0 mi ESE 9.2 mph 20.7 mph 0.00 in Snow Light Snow
6:54 PM 34.0 °F 25.0 °F 26.1 °F 73% 29.92 in 7.0 mi ESE 12.7 mph 23.0 mph 0.00 in Snow Light Snow
7:54 PM 34.0 °F 25.5 °F 25.0 °F 70% 29.94 in 8.0 mi ESE 11.5 mph 25.3 mph 0.00 in Snow Light Snow
8:02 PM 33.8 °F 25.8 °F 26.6 °F 75% 29.92 in 9.0 mi ESE 10.4 mph 18.4 mph 0.00 in Snow Light Snow
8:54 PM 32.0 °F 22.5 °F 28.9 °F 88% 29.95 in 3.0 mi ESE 12.7 mph 20.7 mph 0.00 in Snow Light Snow
9:00 PM 32.0 °F 24.2 °F 28.4 °F 87% 29.94 in 2.0 mi ESE 9.2 mph 20.7 mph 0.00 in Snow Light Snow
9:07 PM 32.0 °F 23.6 °F 30.2 °F 93% 29.94 in 1.2 mi East 10.4 mph 17.3 mph 0.00 in Snow Light Snow
9:17 PM 32.0 °F 23.6 °F 28.4 °F 87% 29.94 in 3.0 mi ESE 10.4 mph 19.6 mph 0.00 in Snow Light Snow
9:54 PM 33.1 °F 23.4 °F 28.0 °F 82% 29.96 in 5.0 mi ESE 13.8 mph 27.6 mph 0.00 in Snow Light Snow
10:14 PM 33.8 °F 24.3 °F 28.4 °F 81% 29.96 in 4.0 mi ESE 13.8 mph 27.6 mph 0.00 in Snow Light Snow
10:54 PM 33.1 °F 23.9 °F 27.0 °F 78% 29.98 in 9.0 mi ESE 12.7 mph 24.2 mph 0.00 in Snow Light Snow
11:54 PM 33.1 °F 24.4 °F 25.0 °F 72% 30.00 in 9.0 mi ESE 11.5 mph 20.7 mph 0.00 in Snow Light Snow